weather.gov     
National Weather Service

Regional Weather Roundup
NWS Homepage
This page is being discontinued on March 12, 2014.
The same data is available at this site. Please update your bookmarks.
Thank you, and we apologize for the inconvenience.
Please send an email to SR-SRH.Webmaster@noaa.gov with any concerns.


Current Version
Previous Version:    01  02  03  04  05  06  07  08  09  10  11  12  13  14  15  16  17  18  19  20  21  22  23  24  25  26  27  28  29  30  
   31  32  33  34  35  36  37  38  39  40  41  42  43  44  45  46  47  48  49  50  51  52  53  54  55  56  57  58  59  60  
[Printable]
898
ASUS44 KFWD 241315
RWRTX
NORTH TEXAS HOURLY WEATHER ROUNDUP
NATIONAL WEATHER SERVICE FORT WORTH TX
800 AM CDT FRI OCT 24 2014

NOTE: "FAIR" INDICATES FEW OR NO CLOUDS BELOW 12,000 FEET WITH NO
SIGNIFICANT WEATHER AND/OR OBSTRUCTIONS TO VISIBILITY.

TXZ118-119-241400-
DALLAS/FORT WORTH METROPLEX

CITY           SKY/WX    TMP DP  RH WIND       PRES   REMARKS
DFW AIRPORT    MOCLDY    61  56  83 SE6       30.14R
DALLAS LOVE    MOCLDY    63  55  75 S8        30.14S
FTW MEACHAM    CLEAR     63  55  75 SE8       30.13R
DAL-EXECUTIVE  CLEAR     61  55  81 S6        30.14S
FTW-ALLIANCE   PTCLDY    60  55  83 SE5       30.13R
FTW-NAS-JRB    CLOUDY    69  54  58 SE6       30.17R
FTW-SPINKS     PTCLDY    63  55  77 S6        30.15R
ARLINGTON      CLOUDY    62  54  74 SE6       30.14R
GRAND PRAIRIE  PTCLDY    63  57  82 MISG      30.15S
MESQUITE       MOCLDY    57  55  94 SE5       30.16R
LANCASTER      CLEAR     56  53  88 SE3       30.16S
$$

TXZ091>094-102>105-117-120-121-131>134-241400-
NORTH CENTRAL TEXAS

CITY           SKY/WX    TMP DP  RH WIND       PRES   REMARKS
SHRMAN/DENISON PTCLDY    60  57  89 SE8       30.15R
GAINESVILLE    CLOUDY    58  56  92 SE6       30.15R
BOWIE          CLEAR     56  55  97 SE3       30.12R
BRIDGEPORT     CLEAR     56  56 100 CALM      30.14R
DECATUR        CLEAR     60  55  81 SE6       30.13R
DENTON         PTCLDY    60  56  86 SE7       30.13S
MCKINNEY       PTCLDY    57  55  93 S3        30.15R
GREENVILLE     CLOUDY    57  54  88 CALM      30.16S
ROCKWALL       MOCLDY    59  53  80 S5        30.15R
TERRELL        MOCLDY    58  55  90 CALM      30.17R
WAXAHACHIE     PTCLDY    59  55  88 CALM      30.16S
CLEBURNE       CLEAR     59  57  94 S6        30.15S
GRANBURY       CLEAR     61  56  83 CALM      30.14S
$$

TXZ083>090-098>101-113>116-127>130-139>142-154-155-241400-
WESTERN NORTH TEXAS

CITY           SKY/WX    TMP DP  RH WIND       PRES   REMARKS
WICHITA FALLS  CLEAR     59  56  89 S8        30.09R
WF-KICKAPOO    CLEAR     58  56  93 SW6       30.11S
VERNON         CLEAR     61  57  88 SW7       30.09S
ABILENE        CLEAR     63  59  87 SW3       30.14R
ABILENE-DYESS  CLEAR     59  56  89 CALM      30.13R
BRECKENRIDGE   CLEAR     62  60  94 S7        30.13R FOG
GRAHAM         CLEAR     60  58  92 SE3       30.11R
MINERAL WELLS  CLEAR     58  56  93 SE6       30.12R FOG
STEPHENVILLE   CLEAR     58  55  88 CALM      30.16S
COMANCHE       CLEAR     60  60 100 S6        30.15R
BROWNWOOD      CLEAR     57  57 100 CALM      30.15S FOG
COLEMAN        CLEAR     58  58 100 SW3       30.15S FOG
BRADY          CLEAR     57  57 100 S3        30.15S
$$

TXZ143>147-156>162-174-175-241400-
CENTRAL TEXAS

CITY           SKY/WX    TMP DP  RH WIND       PRES   REMARKS
WACO           CLEAR     59  54  83 SE6       30.15R
WACO-TSTC      CLEAR     59  55  88 SE3       30.16
WACO-MCGREGOR  CLEAR     57  50  77 SE3       30.17R
HILLSBORO      PTCLDY    61  51  70 SE7       30.16R
CORSICANA      PTCLDY    56  52  86 SE6       30.18R
MEXIA          MOCLDY    56  54  93 CALM      30.16R
HEARNE         CLOUDY    56  54  94 CALM      30.17R
CAMERON        MOCLDY    56  55  95 CALM      30.16R
TEMPLE         CLEAR     57  50  77 SE5       30.14S
KILLEEN        CLEAR     61  55  79 S8        30.15R
KILLEEN-SKYLRK CLEAR     57  48  72 S3        30.12S
FORT HOOD      CLEAR     62  55  77 CALM      30.15R
GATESVILLE     CLEAR     57  55  94 CALM      30.17S
HAMILTON       CLEAR     58  57  96 S7        30.16R
LAMPASAS       CLEAR     58  56  92 CALM      30.14S
$$

TXZ095>097-106>112-122>126-135>138-148>153-164>167-241400-
EAST TEXAS

CITY           SKY/WX    TMP DP  RH WIND       PRES   REMARKS
PARIS          CLEAR     52  45  76 SE6       30.16F
SULPHUR SPRNGS CLOUDY    56  54  91 CALM      30.18S
MOUNT PLEASANT MOCLDY    54  52  95 CALM      30.18S
MINEOLA        CLOUDY    55  54  94 CALM      30.18R
TYLER          CLOUDY    58  53  84 S3        30.17R
LONGVIEW       CLEAR     51  49  92 CALM      30.16R
MARSHALL       CLEAR     51  49  92 CALM      30.19R
ATHENS         CLOUDY    55  54  94 CALM      30.16R
PALESTINE      CLOUDY    57  54  91 CALM      30.18R
JACKSONVILLE   CLOUDY    56  51  82 CALM      30.18R
HENDERSON      CLEAR     49  49 100 CALM      30.18R
NACOGDOCHES    CLEAR     46  45  93 CALM      30.18R
LUFKIN         CLEAR     53  49  86 CALM      30.16R FOG
$$

SUPPLEMENTAL OBSERVATIONS (CENTRAL)

CITY           SKY/WX    TMP DP  RH WIND       PRES   REMARKS
LAKE TEXOMA      N/A     55  52  88 E6          N/A
CADDO GRASSLND   N/A     54  48  82 S3          N/A
PAT MAYSE LAKE   N/A     52  48  87 CALM        N/A
GREENVILLE       N/A     57  52  82 SE1         N/A
CEDAR HILL       N/A     63  54  72 SE5         N/A
PALESTINE        N/A     55  54  94 CALM        N/A
MCGREGOR         N/A     57  54  88 SW2         N/A
TEMPLE           N/A     59  54  82 SE2         N/A
$$

SUPPLEMENTAL OBSERVATIONS (WEST)

CITY           SKY/WX    TMP DP  RH WIND       PRES   REMARKS
MILLERS CREEK    N/A     59  52  77 SW6         N/A
POSSUM KINGDOM   N/A     63  57  82 S7          N/A
LBJ GRASSLAND    N/A     63  55  77 SE7         N/A
GRANBURY         N/A     61  55  82 SE2         N/A
HAMBY            N/A     61  57  88 S3          N/A
IVIE RESERVOIR   N/A     57  54  88 SE2         N/A
COLORADO BEND    N/A     61  57  88 S2          N/A
$$

SUPPLEMENTAL OBSERVATIONS (EAST)

CITY           SKY/WX    TMP DP  RH WIND       PRES   REMARKS
CLARKSVILLE      N/A     55  52  88 E2          N/A
TEXARKANA        N/A     45  43  93 CALM        N/A
LINDEN           N/A     48  45  87 CALM        N/A
CADDO LAKE       N/A     45  43  93 CALM        N/A
GILMER           N/A     54  50  87 CALM        N/A
HENDERSON        N/A     48  45  87 CALM        N/A
N SABINE NF      N/A     45  41  87 MISG        N/A
$$

SUPPLEMENTAL OBSERVATIONS ARE A COLLECTION OF AUTOMATED INSTRUMENTS
THAT ARE MAINTAINED BY A VARIETY OF FEDERAL AND STATE AGENCIES.
CERTAIN ELEMENTS...SUCH AS HUMIDITY VALUES AND SUSTAINED WIND
SPEEDS...MAY BE APPROXIMATED.





U.S. Dept. of Commerce
NOAA National Weather Service
1325 East West Highway
Silver Spring, MD 20910
E-mail: w-nws.webmaster@noaa.gov
Page last modified: May 16, 2007
NATIONAL WEATHER SERVICE: for Safety, for Work, for Fun - FOR LIFE